This demonstration page uses our WeatherBlox Daily Observations layout. Learn more.

41.55636, -103.73856

Hourly Observations for December 8, 2016

Temp ( °F °C ) Dew Point ( °F °C ) Humidity (%) Winds ( mph kmh ) Pressure ( in mb ) Visibility ( mi km ) Precip ( " mm )
12:53 am 00:53 Clear -6 -21.1 -12 -24.4 75 75 NW 5 7 30.75 1041 10 16.0934 0 0
1:53 am 01:53 Clear -6 -21.1 -12 -24.4 75 75 W 3 6 30.77 1042 10 16.0934 0 0
2:53 am 02:53 Clear -8 -22.2 -14 -25.6 74 74 NW 7 11 30.77 1042 10 16.0934 0 0
3:53 am 03:53 Clear -8 -22.2 -13 -25 78 78 NW 8 13 30.77 1042 10 16.0934 0 0
4:53 am 04:53 Clear -9 -22.8 -14 -25.6 78 78 NW 9 15 30.79 1043 10 16.0934 0 0
5:53 am 05:53 Clear -9 -22.8 -15 -26.1 75 75 NW 9 15 30.81 1043 10 16.0934 0 0
6:53 am 06:53 Clear -9 -22.8 -14 -25.6 78 78 NW 9 15 30.82 1044 10 16.0934 0 0
7:53 am 07:53 Sunny -6 -21.1 -12 -24.4 75 75 NW 12 19 30.84 1044 10 16.0934 0 0
8:53 am 08:53 Sunny -1 -18.3 -8 -22.2 72 72 W 8 13 30.83 1044 10 16.0934 0 0
9:53 am 09:53 Sunny 4 -15.6 -4 -20 69 69 WNW 5 7 30.81 1043 10 16.0934 0 0
10:53 am 10:53 Sunny 8 -13.3 -3 -19.4 60 60 WSW 3 6 30.77 1042 10 16.0934 0 0
11:53 am 11:53 Sunny 13 -10.6 -3 -19.4 49 49 Calm 30.73 1041 10 16.0934 0 0
12:53 pm 12:53 Sunny 16 -8.9 -3 -19.4 43 43 E 3 6 30.68 1039 10 16.0934 0 0
1:53 pm 13:53 Sunny 17 -8.3 -2 -18.9 43 43 ESE 7 11 30.65 1038 10 16.0934 0 0
2:53 pm 14:53 Sunny 17 -8.3 0 -17.8 47 47 E 9 15 30.65 1038 10 16.0934 0 0
3:53 pm 15:53 Sunny 15 -9.4 1 -17.2 53 53 ESE 8 13 30.65 1038 10 16.0934 0 0
4:53 pm 16:53 Clear 8 -13.3 -1 -18.3 66 66 ESE 8 13 30.67 1039 10 16.0934 0 0
5:53 pm 17:53 Clear 7 -13.9 -2 -18.9 66 66 E 8 13 30.65 1038 10 16.0934 0 0
6:53 pm 18:53 Clear 4 -15.6 -4 -20 69 69 E 7 11 30.66 1038 10 16.0934 0 0
7:53 pm 19:53 Clear 4 -15.6 -3 -19.4 73 73 E 6 9 30.63 1037 10 16.0934 0 0
8:53 pm 20:53 Clear 6 -14.4 -1 -18.3 73 73 ESE 9 15 30.57 1035 10 16.0934 0 0
9:53 pm 21:53 Clear 6 -14.4 -1 -18.3 73 73 E 12 19 30.54 1034 10 16.0934 0 0
10:53 pm 22:53 Mostly Clear 6 -14.4 -1 -18.3 73 73 ESE 13 20 30.5 1033 10 16.0934 0 0
11:53 pm 23:53 Cloudy 8 -13.3 1 -17.2 73 73 ESE 13 20 30.45 1031 10 16.0934 0 0

Powered by AerisWeather